Weather History for KROX - May, 2013

Change the Weather History Date:

Saturday, May 4, 2013

  Actual Average Record
Temperature  
Mean Temperature 42 °F -  
Max Temperature 50 °F 63 °F 90 °F (1952)
Min Temperature 33 °F 34 °F 19 °F (1973)
Degree Days  
Heating Degree Days 24    
Moisture  
Dew Point 31 °F    
Average Humidity 69    
Maximum Humidity 81    
Minimum Humidity 53    
Precipitation  
Precipitation 0.00 in - - ()
Sea Level Pressure  
Sea Level Pressure 30.30 in    
Wind  
Wind Speed 6 mph (NE)    
Max Wind Speed 16 mph    
Max Gust Speed 21 mph    
Visibility 10 miles    
Events      
Averages and records for this station are not official NWS values.
T = Trace of Precipitation, MM = Missing Value Source: NWS Daily Summary

Daily Weather History Graph

Daily Weather History Graph

Search for Another Location

Airport or City:

Trip Planner

Search our weather history database for the weather conditions in past years. The results will help you decide how hot, cold, wet, or windy it might be!

Date:

Astronomy

May. 04, 2013 Rise Set
Actual Time 5:56 AM CDT 8:43 PM CDT
Civil Twilight 5:20 AM CDT 9:19 PM CDT
Nautical Twilight 4:34 AM CDT 10:05 PM CDT
Astronomical Twilight 3:39 AM CDT 11:01 PM CDT
Moon 3:22 AM CDT 3:17 PM CDT
Length of Visible Light 15h 58m
Length of Day
14h 46m
Waning Crescent, 27% of the Moon is Illuminated
May 4
Waning Crescent
May 9
New
May 17
First Quarter
May 24
Full
May 31
Last Quarter

Hourly Weather History & Observations

Time (CDT) Temp. Windchill Dew Point Humidity Pressure Visibility Wind Dir Wind Speed Gust Speed Precip Events Conditions
12:14 AM 35.6 °F - 28.4 °F 75% 30.30 in 10.0 mi Calm Calm - N/A   Clear
12:34 AM 35.6 °F - 28.4 °F 75% 30.30 in 10.0 mi Calm Calm - N/A   Clear
12:54 AM 35.6 °F 32.8 °F 28.4 °F 75% 30.30 in 10.0 mi NNE 3.5 mph - N/A   Clear
1:14 AM 35.6 °F - 28.4 °F 75% 30.30 in 10.0 mi Calm Calm - N/A   Clear
1:34 AM 35.6 °F 32.8 °F 28.4 °F 75% 30.30 in 10.0 mi NNE 3.5 mph - N/A   Clear
1:54 AM 35.6 °F 31.7 °F 28.4 °F 75% 30.30 in 10.0 mi NW 4.6 mph - N/A   Clear
2:14 AM 33.8 °F - 28.4 °F 81% 30.30 in 10.0 mi Calm Calm - N/A   Clear
2:34 AM 33.8 °F - 26.6 °F 75% 30.30 in 10.0 mi Calm Calm - N/A   Clear
2:55 AM 33.8 °F 30.8 °F 26.6 °F 75% 30.30 in 10.0 mi NNW 3.5 mph - N/A   Clear
3:14 AM 33.8 °F 30.8 °F 26.6 °F 75% 30.30 in 10.0 mi North 3.5 mph - N/A   Clear
3:34 AM 35.6 °F 29.9 °F 26.6 °F 70% 30.30 in 10.0 mi North 6.9 mph - N/A   Clear
3:54 AM 35.6 °F 32.8 °F 26.6 °F 70% 30.30 in 10.0 mi North 3.5 mph - N/A   Clear
4:14 AM 33.8 °F 29.6 °F 26.6 °F 75% 30.30 in 10.0 mi North 4.6 mph - N/A   Clear
4:35 AM 33.8 °F 30.8 °F 26.6 °F 75% 30.30 in 10.0 mi North 3.5 mph - N/A   Scattered Clouds
4:54 AM 33.8 °F 30.8 °F 26.6 °F 75% 30.30 in 10.0 mi North 3.5 mph - N/A   Scattered Clouds
5:14 AM 33.8 °F 29.6 °F 26.6 °F 75% 30.30 in 10.0 mi North 4.6 mph - N/A   Mostly Cloudy
5:34 AM 33.8 °F 28.6 °F 26.6 °F 75% 30.30 in 10.0 mi North 5.8 mph - N/A   Mostly Cloudy
5:54 AM 33.8 °F 28.6 °F 26.6 °F 75% 30.31 in 10.0 mi North 5.8 mph - N/A   Scattered Clouds
6:14 AM 33.8 °F 29.6 °F 26.6 °F 75% 30.31 in 10.0 mi North 4.6 mph - N/A   Clear
6:34 AM 33.8 °F 27.7 °F 26.6 °F 75% 30.31 in 10.0 mi North 6.9 mph - N/A   Scattered Clouds
6:54 AM 33.8 °F 28.6 °F 26.6 °F 75% 30.31 in 10.0 mi North 5.8 mph - N/A   Clear
7:14 AM 33.8 °F 27.7 °F 26.6 °F 75% 30.32 in 10.0 mi North 6.9 mph - N/A   Clear
7:34 AM 33.8 °F 28.6 °F 26.6 °F 75% 30.31 in 10.0 mi North 5.8 mph - N/A   Clear
7:54 AM 35.6 °F 30.7 °F 26.6 °F 70% 30.31 in 10.0 mi NNE 5.8 mph - N/A   Clear
8:14 AM 37.4 °F 31.4 °F 28.4 °F 70% 30.31 in 10.0 mi NNE 8.1 mph - N/A   Clear
8:34 AM 37.4 °F 30.8 °F 26.6 °F 65% 30.32 in 10.0 mi NE 9.2 mph - N/A   Clear
8:54 AM 39.2 °F 32.5 °F 28.4 °F 65% 30.32 in 10.0 mi NE 10.4 mph - N/A   Mostly Cloudy
9:14 AM 39.2 °F 31.6 °F 28.4 °F 65% 30.32 in 10.0 mi NE 12.7 mph - N/A   Overcast
9:34 AM 39.2 °F 32.0 °F 28.4 °F 65% 30.32 in 10.0 mi NE 11.5 mph - N/A   Overcast
9:54 AM 41.0 °F 33.9 °F 28.4 °F 61% 30.32 in 10.0 mi NE 12.7 mph - N/A   Overcast
10:14 AM 42.8 °F 35.8 °F 28.4 °F 57% 30.31 in 10.0 mi NE 13.8 mph - N/A   Overcast
10:34 AM 42.8 °F 35.8 °F 28.4 °F 57% 30.32 in 10.0 mi NE 13.8 mph - N/A   Overcast
10:54 AM 42.8 °F 36.2 °F 28.4 °F 57% 30.32 in 10.0 mi NE 12.7 mph - N/A   Mostly Cloudy
11:14 AM 42.8 °F 36.2 °F 30.2 °F 61% 30.32 in 10.0 mi NE 12.7 mph - N/A   Scattered Clouds
11:34 AM 44.6 °F 38.8 °F 28.4 °F 53% 30.32 in 10.0 mi NE 11.5 mph - N/A   Mostly Cloudy
11:54 AM 44.6 °F 38.1 °F 30.2 °F 57% 30.32 in 10.0 mi ENE 13.8 mph - N/A   Mostly Cloudy
12:14 PM 44.6 °F 38.1 °F 30.2 °F 57% 30.32 in 10.0 mi ENE 13.8 mph - N/A   Scattered Clouds
12:39 PM 44.6 °F 38.8 °F 30.2 °F 57% 30.31 in 10.0 mi East 11.5 mph - N/A   Clear
12:54 PM 44.6 °F 38.8 °F 32.0 °F 61% 30.31 in 10.0 mi East 11.5 mph - N/A   Clear
1:14 PM 46.4 °F 41.1 °F 32.0 °F 57% 30.31 in 10.0 mi ENE 11.5 mph - N/A   Clear
1:34 PM 46.4 °F 40.4 °F 33.8 °F 62% 30.30 in 10.0 mi East 13.8 mph - N/A   Scattered Clouds
1:54 PM 46.4 °F 40.4 °F 33.8 °F 62% 30.30 in 10.0 mi East 13.8 mph - N/A   Scattered Clouds
2:14 PM 48.2 °F - 35.6 °F 62% 30.29 in 10.0 mi East 12.7 mph - N/A   Clear
2:34 PM 48.2 °F - 35.6 °F 62% 30.29 in 10.0 mi East 12.7 mph 16.1 mph N/A   Clear
2:54 PM 50.0 °F - 35.6 °F 58% 30.28 in 10.0 mi ENE 15.0 mph 20.7 mph N/A   Clear
3:14 PM 50.0 °F - 35.6 °F 58% 30.28 in 10.0 mi ENE 12.7 mph - N/A   Clear
3:35 PM 48.2 °F - 35.6 °F 62% 30.28 in 10.0 mi East 13.8 mph - N/A   Clear
3:54 PM 48.2 °F - 35.6 °F 62% 30.28 in 10.0 mi ENE 16.1 mph - N/A   Scattered Clouds
4:14 PM 48.2 °F - 33.8 °F 58% 30.28 in 10.0 mi ENE 16.1 mph - N/A   Scattered Clouds
4:35 PM 46.4 °F 40.1 °F 35.6 °F 66% 30.28 in 10.0 mi East 15.0 mph - N/A   Scattered Clouds
4:54 PM 48.2 °F - 35.6 °F 62% 30.28 in 10.0 mi East 15.0 mph - N/A   Scattered Clouds
5:14 PM 46.4 °F 40.1 °F 35.6 °F 66% 30.28 in 10.0 mi East 15.0 mph - N/A   Scattered Clouds
5:35 PM 46.4 °F 40.7 °F 35.6 °F 66% 30.28 in 10.0 mi East 12.7 mph - N/A   Scattered Clouds
5:54 PM 46.4 °F 40.1 °F 35.6 °F 66% 30.28 in 10.0 mi ENE 15.0 mph - N/A   Scattered Clouds
6:14 PM 46.4 °F 40.4 °F 33.8 °F 62% 30.28 in 10.0 mi East 13.8 mph - N/A   Scattered Clouds
6:35 PM 44.6 °F 39.2 °F 35.6 °F 71% 30.28 in 10.0 mi East 10.4 mph - N/A   Scattered Clouds
6:54 PM 44.6 °F 39.2 °F 35.6 °F 71% 30.29 in 10.0 mi East 10.4 mph - N/A   Scattered Clouds
7:14 PM 44.6 °F 39.2 °F 35.6 °F 71% 30.29 in 10.0 mi East 10.4 mph - N/A   Scattered Clouds
7:35 PM 44.6 °F 40.2 °F 35.6 °F 71% 30.29 in 10.0 mi East 8.1 mph - N/A   Scattered Clouds
7:54 PM 44.6 °F 39.7 °F 35.6 °F 71% 30.28 in 10.0 mi East 9.2 mph - N/A   Clear
8:14 PM 44.6 °F 40.7 °F 35.6 °F 71% 30.29 in 10.0 mi East 6.9 mph - N/A   Scattered Clouds
8:35 PM 44.6 °F 40.7 °F 35.6 °F 71% 30.28 in 10.0 mi East 6.9 mph - N/A   Scattered Clouds
8:54 PM 42.8 °F 39.3 °F 35.6 °F 76% 30.28 in 10.0 mi East 5.8 mph - N/A   Clear
9:14 PM 42.8 °F 38.0 °F 35.6 °F 76% 30.29 in 10.0 mi East 8.1 mph - N/A   Clear
9:34 PM 42.8 °F 38.0 °F 35.6 °F 76% 30.29 in 10.0 mi East 8.1 mph - N/A   Clear
9:54 PM 42.8 °F 38.6 °F 35.6 °F 76% 30.30 in 10.0 mi East 6.9 mph - N/A   Scattered Clouds
10:14 PM 42.8 °F 39.3 °F 35.6 °F 76% 30.30 in 10.0 mi East 5.8 mph - N/A   Mostly Cloudy
10:34 PM 42.8 °F 39.3 °F 35.6 °F 76% 30.30 in 10.0 mi East 5.8 mph - N/A   Mostly Cloudy
10:54 PM 41.0 °F 38.0 °F 35.6 °F 81% 30.30 in 10.0 mi East 4.6 mph - N/A   Scattered Clouds
11:14 PM 41.0 °F 39.0 °F 35.6 °F 81% 30.30 in 10.0 mi East 3.5 mph - N/A   Clear
11:34 PM 41.0 °F - 35.6 °F 81% 30.29 in 10.0 mi Calm Calm - N/A   Clear
11:54 PM 39.2 °F 37.0 °F 33.8 °F 81% 30.29 in 10.0 mi East 3.5 mph - N/A   Clear